Year,Month,Day,Hour,Minute,Value (Times are PST for insolation in W/m^2)
2017,11,04,00,00,0.00
2017,11,04,00,01,0.00
2017,11,04,00,02,0.00
2017,11,04,00,03,0.00
2017,11,04,00,04,0.00
2017,11,04,00,05,0.00
2017,11,04,00,06,0.00
2017,11,04,00,07,0.00
2017,11,04,00,08,0.00
2017,11,04,00,09,0.00
2017,11,04,00,10,0.00
2017,11,04,00,11,0.00
2017,11,04,00,12,0.00
2017,11,04,00,13,0.00
2017,11,04,00,14,0.00
2017,11,04,00,15,0.00
2017,11,04,00,16,0.00
2017,11,04,00,17,0.00
2017,11,04,00,18,0.00
2017,11,04,00,19,0.00
2017,11,04,00,20,0.00
2017,11,04,00,21,0.00
2017,11,04,00,22,0.00
2017,11,04,00,23,0.00
2017,11,04,00,24,0.00
2017,11,04,00,25,0.00
2017,11,04,00,26,0.00
2017,11,04,00,27,0.00
2017,11,04,00,28,0.00
2017,11,04,00,29,0.00
2017,11,04,00,30,0.00
2017,11,04,00,31,0.00
2017,11,04,00,32,0.00
2017,11,04,00,33,0.00
2017,11,04,00,34,0.00
2017,11,04,00,35,0.00
2017,11,04,00,36,0.00
2017,11,04,00,37,0.00
2017,11,04,00,38,0.00
2017,11,04,00,39,0.00
2017,11,04,00,40,0.00
2017,11,04,00,41,0.00
2017,11,04,00,42,0.00
2017,11,04,00,43,0.00
2017,11,04,00,44,0.00
2017,11,04,00,45,0.00
2017,11,04,00,46,0.00
2017,11,04,00,47,0.00
2017,11,04,00,48,0.00
2017,11,04,00,49,0.00
2017,11,04,00,50,0.00
2017,11,04,00,51,0.00
2017,11,04,00,52,0.00
2017,11,04,00,53,0.00
2017,11,04,00,54,0.00
2017,11,04,00,55,0.00
2017,11,04,00,56,0.00
2017,11,04,00,57,0.00
2017,11,04,00,58,0.00
2017,11,04,00,59,0.00
2017,11,04,01,00,0.00
2017,11,04,01,01,0.00
2017,11,04,01,02,0.00
2017,11,04,01,03,0.00
2017,11,04,01,04,0.00
2017,11,04,01,05,0.00
2017,11,04,01,06,0.00
2017,11,04,01,07,0.00
2017,11,04,01,08,0.00
2017,11,04,01,09,0.00
2017,11,04,01,10,0.00
2017,11,04,01,11,0.00
2017,11,04,01,12,0.00
2017,11,04,01,13,0.00
2017,11,04,01,14,0.00
2017,11,04,01,15,0.00
2017,11,04,01,16,0.00
2017,11,04,01,17,0.00
2017,11,04,01,18,0.00
2017,11,04,01,19,0.00
2017,11,04,01,20,0.00
2017,11,04,01,21,0.00
2017,11,04,01,22,0.00
2017,11,04,01,23,0.00
2017,11,04,01,24,0.00
2017,11,04,01,25,0.00
2017,11,04,01,26,0.00
2017,11,04,01,27,0.00
2017,11,04,01,28,0.00
2017,11,04,01,29,0.00
2017,11,04,01,30,0.00
2017,11,04,01,31,0.00
2017,11,04,01,32,0.00
2017,11,04,01,33,0.00
2017,11,04,01,34,0.00
2017,11,04,01,35,0.00
2017,11,04,01,36,0.00
2017,11,04,01,37,0.00
2017,11,04,01,38,0.00
2017,11,04,01,39,0.00
2017,11,04,01,40,0.00
2017,11,04,01,41,0.00
2017,11,04,01,42,0.00
2017,11,04,01,43,0.00
2017,11,04,01,44,0.00
2017,11,04,01,45,0.00
2017,11,04,01,46,0.00
2017,11,04,01,47,0.00
2017,11,04,01,48,0.00
2017,11,04,01,49,0.00
2017,11,04,01,50,0.00
2017,11,04,01,51,0.00
2017,11,04,01,52,0.00
2017,11,04,01,53,0.00
2017,11,04,01,54,0.00
2017,11,04,01,55,0.00
2017,11,04,01,56,0.00
2017,11,04,01,57,0.00
2017,11,04,01,58,0.00
2017,11,04,01,59,0.00
2017,11,04,02,00,0.00
2017,11,04,02,01,0.00
2017,11,04,02,02,0.00
2017,11,04,02,03,0.00
2017,11,04,02,04,0.00
2017,11,04,02,05,0.00
2017,11,04,02,06,0.00
2017,11,04,02,07,0.00
2017,11,04,02,08,0.00
2017,11,04,02,09,0.00
2017,11,04,02,10,0.00
2017,11,04,02,11,0.00
2017,11,04,02,12,0.00
2017,11,04,02,13,0.00
2017,11,04,02,14,0.00
2017,11,04,02,15,0.00
2017,11,04,02,16,0.00
2017,11,04,02,17,0.00
2017,11,04,02,18,0.00
2017,11,04,02,19,0.00
2017,11,04,02,20,0.00
2017,11,04,02,21,0.00
2017,11,04,02,22,0.00
2017,11,04,02,23,0.00
2017,11,04,02,24,0.00
2017,11,04,02,25,0.00
2017,11,04,02,26,0.00
2017,11,04,02,27,0.00
2017,11,04,02,28,0.00
2017,11,04,02,29,0.00
2017,11,04,02,30,0.00
2017,11,04,02,31,0.00
2017,11,04,02,32,0.00
2017,11,04,02,33,0.00
2017,11,04,02,34,0.00
2017,11,04,02,35,0.00
2017,11,04,02,36,0.00
2017,11,04,02,37,0.00
2017,11,04,02,38,0.00
2017,11,04,02,39,0.00
2017,11,04,02,40,0.00
2017,11,04,02,41,0.00
2017,11,04,02,42,0.00
2017,11,04,02,43,0.00
2017,11,04,02,44,0.00
2017,11,04,02,45,0.00
2017,11,04,02,46,0.00
2017,11,04,02,47,0.00
2017,11,04,02,48,0.00
2017,11,04,02,49,0.00
2017,11,04,02,50,0.00
2017,11,04,02,51,0.00
2017,11,04,02,52,0.00
2017,11,04,02,53,0.00
2017,11,04,02,54,0.00
2017,11,04,02,55,0.00
2017,11,04,02,56,0.00
2017,11,04,02,57,0.00
2017,11,04,02,58,0.00
2017,11,04,02,59,0.00
2017,11,04,03,00,0.00
2017,11,04,03,01,0.00
2017,11,04,03,02,0.00
2017,11,04,03,03,0.00
2017,11,04,03,04,0.00
2017,11,04,03,05,0.00
2017,11,04,03,06,0.00
2017,11,04,03,07,0.00
2017,11,04,03,08,0.00
2017,11,04,03,09,0.00
2017,11,04,03,10,0.00
2017,11,04,03,11,0.00
2017,11,04,03,12,0.00
2017,11,04,03,13,0.00
2017,11,04,03,14,0.00
2017,11,04,03,15,0.00
2017,11,04,03,16,0.00
2017,11,04,03,17,0.00
2017,11,04,03,18,0.00
2017,11,04,03,19,0.00
2017,11,04,03,20,0.00
2017,11,04,03,21,0.00
2017,11,04,03,22,0.00
2017,11,04,03,23,0.00
2017,11,04,03,24,0.00
2017,11,04,03,25,0.00
2017,11,04,03,26,0.00
2017,11,04,03,27,0.00
2017,11,04,03,28,0.00
2017,11,04,03,29,0.00
2017,11,04,03,30,0.00
2017,11,04,03,31,0.00
2017,11,04,03,32,0.00
2017,11,04,03,33,0.00
2017,11,04,03,34,0.00
2017,11,04,03,35,0.00
2017,11,04,03,36,0.00
2017,11,04,03,37,0.00
2017,11,04,03,38,0.00
2017,11,04,03,39,0.00
2017,11,04,03,40,0.00
2017,11,04,03,41,0.00
2017,11,04,03,42,0.00
2017,11,04,03,43,0.00
2017,11,04,03,44,0.00
2017,11,04,03,45,0.00
2017,11,04,03,46,0.00
2017,11,04,03,47,0.00
2017,11,04,03,48,0.00
2017,11,04,03,49,0.00
2017,11,04,03,50,0.00
2017,11,04,03,51,0.00
2017,11,04,03,52,0.00
2017,11,04,03,53,0.00
2017,11,04,03,54,0.00
2017,11,04,03,55,0.00
2017,11,04,03,56,0.00
2017,11,04,03,57,0.00
2017,11,04,03,58,0.00
2017,11,04,03,59,0.00
2017,11,04,04,00,0.00
2017,11,04,04,01,0.00
2017,11,04,04,02,0.00
2017,11,04,04,03,0.00
2017,11,04,04,04,0.00
2017,11,04,04,05,0.00
2017,11,04,04,06,0.00
2017,11,04,04,07,0.00
2017,11,04,04,08,0.00
2017,11,04,04,09,0.00
2017,11,04,04,10,0.00
2017,11,04,04,11,0.00
2017,11,04,04,12,0.00
2017,11,04,04,13,0.00
2017,11,04,04,14,0.00
2017,11,04,04,15,0.00
2017,11,04,04,16,0.00
2017,11,04,04,17,0.00
2017,11,04,04,18,0.00
2017,11,04,04,19,0.00
2017,11,04,04,20,0.00
2017,11,04,04,21,0.00
2017,11,04,04,22,0.00
2017,11,04,04,23,0.00
2017,11,04,04,24,0.00
2017,11,04,04,25,0.00
2017,11,04,04,26,0.00
2017,11,04,04,27,0.00
2017,11,04,04,28,0.00
2017,11,04,04,29,0.00
2017,11,04,04,30,0.00
2017,11,04,04,31,0.00
2017,11,04,04,32,0.00
2017,11,04,04,33,0.00
2017,11,04,04,34,0.00
2017,11,04,04,35,0.00
2017,11,04,04,36,0.00
2017,11,04,04,37,0.00
2017,11,04,04,38,0.00
2017,11,04,04,39,0.00
2017,11,04,04,40,0.00
2017,11,04,04,41,0.00
2017,11,04,04,42,0.00
2017,11,04,04,43,0.00
2017,11,04,04,44,0.00
2017,11,04,04,45,0.00
2017,11,04,04,46,0.00
2017,11,04,04,47,0.00
2017,11,04,04,48,0.00
2017,11,04,04,49,0.00
2017,11,04,04,50,0.00
2017,11,04,04,51,0.00
2017,11,04,04,52,0.00
2017,11,04,04,53,0.00
2017,11,04,04,54,0.00
2017,11,04,04,55,0.00
2017,11,04,04,56,0.00
2017,11,04,04,57,0.00
2017,11,04,04,58,0.00
2017,11,04,04,59,0.00
2017,11,04,05,00,0.00
2017,11,04,05,01,0.00
2017,11,04,05,02,0.00
2017,11,04,05,03,0.00
2017,11,04,05,04,0.00
2017,11,04,05,05,0.00
2017,11,04,05,06,0.00
2017,11,04,05,07,0.00
2017,11,04,05,08,0.00
2017,11,04,05,09,0.00
2017,11,04,05,10,0.00
2017,11,04,05,11,0.00
2017,11,04,05,12,0.00
2017,11,04,05,13,0.00
2017,11,04,05,14,0.00
2017,11,04,05,15,0.00
2017,11,04,05,16,0.00
2017,11,04,05,17,0.00
2017,11,04,05,18,0.00
2017,11,04,05,19,0.00
2017,11,04,05,20,0.00
2017,11,04,05,21,0.00
2017,11,04,05,22,0.00
2017,11,04,05,23,0.00
2017,11,04,05,24,0.00
2017,11,04,05,25,0.00
2017,11,04,05,26,0.00
2017,11,04,05,27,0.00
2017,11,04,05,28,0.00
2017,11,04,05,29,0.00
2017,11,04,05,30,0.00
2017,11,04,05,31,0.00
2017,11,04,05,32,0.00
2017,11,04,05,33,0.00
2017,11,04,05,34,0.00
2017,11,04,05,35,0.00
2017,11,04,05,36,0.00
2017,11,04,05,37,0.00
2017,11,04,05,38,0.00
2017,11,04,05,39,0.00
2017,11,04,05,40,0.00
2017,11,04,05,41,0.00
2017,11,04,05,42,0.00
2017,11,04,05,43,0.00
2017,11,04,05,44,0.00
2017,11,04,05,45,0.00
2017,11,04,05,46,0.00
2017,11,04,05,47,0.00
2017,11,04,05,48,0.00
2017,11,04,05,49,0.00
2017,11,04,05,50,0.00
2017,11,04,05,51,0.00
2017,11,04,05,52,0.00
2017,11,04,05,53,0.00
2017,11,04,05,54,0.00
2017,11,04,05,55,0.00
2017,11,04,05,56,0.00
2017,11,04,05,57,0.00
2017,11,04,05,58,0.00
2017,11,04,05,59,0.00
2017,11,04,06,00,0.00
2017,11,04,06,01,0.00
2017,11,04,06,02,0.00
2017,11,04,06,03,0.00
2017,11,04,06,04,0.00
2017,11,04,06,05,0.00
2017,11,04,06,06,0.00
2017,11,04,06,07,0.00
2017,11,04,06,08,0.00
2017,11,04,06,09,0.00
2017,11,04,06,10,0.00
2017,11,04,06,11,0.00
2017,11,04,06,12,0.00
2017,11,04,06,13,0.00
2017,11,04,06,14,0.00
2017,11,04,06,15,0.00
2017,11,04,06,16,0.00
2017,11,04,06,17,0.00
2017,11,04,06,18,0.00
2017,11,04,06,19,0.00
2017,11,04,06,20,0.00
2017,11,04,06,21,0.00
2017,11,04,06,22,0.00
2017,11,04,06,23,0.00
2017,11,04,06,24,0.00
2017,11,04,06,25,0.00
2017,11,04,06,26,0.00
2017,11,04,06,27,0.00
2017,11,04,06,28,0.00
2017,11,04,06,29,0.00
2017,11,04,06,30,0.00
2017,11,04,06,31,0.00
2017,11,04,06,32,0.00
2017,11,04,06,33,0.00
2017,11,04,06,34,0.00
2017,11,04,06,35,0.00
2017,11,04,06,36,0.00
2017,11,04,06,37,0.00
2017,11,04,06,38,0.00
2017,11,04,06,39,0.00
2017,11,04,06,40,0.00
2017,11,04,06,41,0.00
2017,11,04,06,42,0.00
2017,11,04,06,43,0.00
2017,11,04,06,44,0.00
2017,11,04,06,45,0.00
2017,11,04,06,46,0.00
2017,11,04,06,47,0.00
2017,11,04,06,48,0.00
2017,11,04,06,49,0.00
2017,11,04,06,50,0.00
2017,11,04,06,51,0.00
2017,11,04,06,52,0.00
2017,11,04,06,53,0.00
2017,11,04,06,54,0.00
2017,11,04,06,55,0.00
2017,11,04,06,56,0.00
2017,11,04,06,57,0.00
2017,11,04,06,58,0.00
2017,11,04,06,59,0.00
2017,11,04,07,00,0.00
2017,11,04,07,01,0.00
2017,11,04,07,02,0.00
2017,11,04,07,03,0.00
2017,11,04,07,04,0.00
2017,11,04,07,05,0.00
2017,11,04,07,06,0.00
2017,11,04,07,07,0.00
2017,11,04,07,08,0.00
2017,11,04,07,09,0.00
2017,11,04,07,10,0.00
2017,11,04,07,11,0.00
2017,11,04,07,12,0.00
2017,11,04,07,13,0.00
2017,11,04,07,14,0.00
2017,11,04,07,15,0.00
2017,11,04,07,16,0.00
2017,11,04,07,17,0.00
2017,11,04,07,18,0.00
2017,11,04,07,19,0.00
2017,11,04,07,20,0.00
2017,11,04,07,21,0.00
2017,11,04,07,22,0.00
2017,11,04,07,23,0.00
2017,11,04,07,24,0.00
2017,11,04,07,25,0.00
2017,11,04,07,26,0.00
2017,11,04,07,27,0.00
2017,11,04,07,28,0.00
2017,11,04,07,29,0.00
2017,11,04,07,30,0.00
2017,11,04,07,31,0.00
2017,11,04,07,32,0.00
2017,11,04,07,33,0.00
2017,11,04,07,34,0.00
2017,11,04,07,35,0.00
2017,11,04,07,36,0.00
2017,11,04,07,37,0.00
2017,11,04,07,38,0.00
2017,11,04,07,39,0.00
2017,11,04,07,40,0.00
2017,11,04,07,41,0.00
2017,11,04,07,42,0.00
2017,11,04,07,43,0.00
2017,11,04,07,44,0.00
2017,11,04,07,45,0.00
2017,11,04,07,46,0.00
2017,11,04,07,47,0.00
2017,11,04,07,48,0.00
2017,11,04,07,49,0.00
2017,11,04,07,50,0.00
2017,11,04,07,51,0.00
2017,11,04,07,52,0.00
2017,11,04,07,53,0.00
2017,11,04,07,54,0.00
2017,11,04,07,55,0.00
2017,11,04,07,56,0.00
2017,11,04,07,57,0.00
2017,11,04,07,58,0.00
2017,11,04,07,59,0.00
2017,11,04,08,00,0.00
2017,11,04,08,01,0.00
2017,11,04,08,02,0.00
2017,11,04,08,03,0.00
2017,11,04,08,04,0.00
2017,11,04,08,05,0.00
2017,11,04,08,06,0.00
2017,11,04,08,07,0.00
2017,11,04,08,08,0.00
2017,11,04,08,09,0.00
2017,11,04,08,10,0.00
2017,11,04,08,11,0.00
2017,11,04,08,12,0.00
2017,11,04,08,13,0.00
2017,11,04,08,14,0.00
2017,11,04,08,15,0.00
2017,11,04,08,16,0.00
2017,11,04,08,17,0.00
2017,11,04,08,18,0.00
2017,11,04,08,19,0.00
2017,11,04,08,20,0.00
2017,11,04,08,21,0.00
2017,11,04,08,22,0.00
2017,11,04,08,23,0.00
2017,11,04,08,24,3.00
2017,11,04,08,25,5.00
2017,11,04,08,26,5.00
2017,11,04,08,27,5.00
2017,11,04,08,28,6.20
2017,11,04,08,29,7.00
2017,11,04,08,30,7.00
2017,11,04,08,31,7.00
2017,11,04,08,32,8.20
2017,11,04,08,33,9.00
2017,11,04,08,34,10.20
2017,11,04,08,35,11.00
2017,11,04,08,36,11.00
2017,11,04,08,37,11.00
2017,11,04,08,38,11.60
2017,11,04,08,39,12.00
2017,11,04,08,40,12.00
2017,11,04,08,41,12.00
2017,11,04,08,42,12.00
2017,11,04,08,43,11.40
2017,11,04,08,44,11.00
2017,11,04,08,45,11.00
2017,11,04,08,46,11.00
2017,11,04,08,47,11.00
2017,11,04,08,48,11.00
2017,11,04,08,49,11.00
2017,11,04,08,50,11.00
2017,11,04,08,51,11.00
2017,11,04,08,52,11.00
2017,11,04,08,53,11.00
2017,11,04,08,54,11.00
2017,11,04,08,55,11.60
2017,11,04,08,56,13.20
2017,11,04,08,57,15.20
2017,11,04,08,58,17.20
2017,11,04,08,59,18.60
2017,11,04,09,00,20.20
2017,11,04,09,01,21.00
2017,11,04,09,02,21.00
2017,11,04,09,03,21.00
2017,11,04,09,04,22.20
2017,11,04,09,05,23.00
2017,11,04,09,06,23.00
2017,11,04,09,07,23.00
2017,11,04,09,08,23.00
2017,11,04,09,09,23.00
2017,11,04,09,10,23.00
2017,11,04,09,11,23.00
2017,11,04,09,12,23.00
2017,11,04,09,13,23.00
2017,11,04,09,14,23.00
2017,11,04,09,15,23.00
2017,11,04,09,16,23.00
2017,11,04,09,17,23.00
2017,11,04,09,18,24.20
2017,11,04,09,19,25.00
2017,11,04,09,20,25.00
2017,11,04,09,21,25.60
2017,11,04,09,22,26.00
2017,11,04,09,23,26.00
2017,11,04,09,24,26.00
2017,11,04,09,25,26.00
2017,11,04,09,26,26.00
2017,11,04,09,27,26.00
2017,11,04,09,28,26.00
2017,11,04,09,29,26.00
2017,11,04,09,30,26.00
2017,11,04,09,31,27.20
2017,11,04,09,32,28.00
2017,11,04,09,33,28.00
2017,11,04,09,34,28.00
2017,11,04,09,35,28.00
2017,11,04,09,36,28.00
2017,11,04,09,37,28.00
2017,11,04,09,38,28.00
2017,11,04,09,39,28.00
2017,11,04,09,40,29.20
2017,11,04,09,41,30.00
2017,11,04,09,42,31.20
2017,11,04,09,43,32.00
2017,11,04,09,44,32.60
2017,11,04,09,45,34.20
2017,11,04,09,46,36.20
2017,11,04,09,47,37.00
2017,11,04,09,48,37.00
2017,11,04,09,49,35.70
2017,11,04,09,50,35.00
2017,11,04,09,51,35.00
2017,11,04,09,52,35.00
2017,11,04,09,53,33.80
2017,11,04,09,54,33.00
2017,11,04,09,55,32.40
2017,11,04,09,56,30.80
2017,11,04,09,57,30.00
2017,11,04,09,58,30.00
2017,11,04,09,59,30.00
2017,11,04,10,00,30.00
2017,11,04,10,01,30.00
2017,11,04,10,02,31.10
2017,11,04,10,03,32.00
2017,11,04,10,04,32.00
2017,11,04,10,05,32.60
2017,11,04,10,06,33.00
2017,11,04,10,07,34.20
2017,11,04,10,08,36.20
2017,11,04,10,09,37.00
2017,11,04,10,10,38.20
2017,11,04,10,11,39.00
2017,11,04,10,12,39.00
2017,11,04,10,13,39.00
2017,11,04,10,14,42.20
2017,11,04,10,15,44.00
2017,11,04,10,16,44.00
2017,11,04,10,17,45.20
2017,11,04,10,18,46.00
2017,11,04,10,19,46.60
2017,11,04,10,20,47.00
2017,11,04,10,21,48.20
2017,11,04,10,22,50.20
2017,11,04,10,23,52.80
2017,11,04,10,24,55.20
2017,11,04,10,25,58.40
2017,11,04,10,26,61.20
2017,11,04,10,27,63.80
2017,11,04,10,28,66.20
2017,11,04,10,29,67.00
2017,11,04,10,30,68.20
2017,11,04,10,31,69.00
2017,11,04,10,32,69.00
2017,11,04,10,33,69.00
2017,11,04,10,34,69.60
2017,11,04,10,35,70.00
2017,11,04,10,36,69.40
2017,11,04,10,37,69.00
2017,11,04,10,38,69.60
2017,11,04,10,39,70.00
2017,11,04,10,40,71.20
2017,11,04,10,41,72.00
2017,11,04,10,42,72.00
2017,11,04,10,43,70.80
2017,11,04,10,44,70.00
2017,11,04,10,45,69.40
2017,11,04,10,46,69.00
2017,11,04,10,47,69.00
2017,11,04,10,48,69.00
2017,11,04,10,49,69.00
2017,11,04,10,50,69.00
2017,11,04,10,51,69.60
2017,11,04,10,52,70.00
2017,11,04,10,53,71.20
2017,11,04,10,54,73.20
2017,11,04,10,55,74.00
2017,11,04,10,56,75.20
2017,11,04,10,57,76.60
2017,11,04,10,58,78.20
2017,11,04,10,59,80.20
2017,11,04,11,00,82.20
2017,11,04,11,01,84.90
2017,11,04,11,02,88.50
2017,11,04,11,03,90.60
2017,11,04,11,04,92.20
2017,11,04,11,05,91.80
2017,11,04,11,06,90.40
2017,11,04,11,07,88.80
2017,11,04,11,08,85.60
2017,11,04,11,09,83.40
2017,11,04,11,10,81.80
2017,11,04,11,11,81.00
2017,11,04,11,12,82.20
2017,11,04,11,13,84.80
2017,11,04,11,14,88.40
2017,11,04,11,15,90.60
2017,11,04,11,16,92.20
2017,11,04,11,17,94.20
2017,11,04,11,18,95.00
2017,11,04,11,19,96.80
2017,11,04,11,20,100.40
2017,11,04,11,21,105.00
2017,11,04,11,22,110.60
2017,11,04,11,23,114.80
2017,11,04,11,24,117.20
2017,11,04,11,25,118.00
2017,11,04,11,26,118.00
2017,11,04,11,27,118.00
2017,11,04,11,28,118.00
2017,11,04,11,29,118.00
2017,11,04,11,30,118.00
2017,11,04,11,31,119.20
2017,11,04,11,32,120.00
2017,11,04,11,33,120.60
2017,11,04,11,34,122.20
2017,11,04,11,35,121.80
2017,11,04,11,36,120.40
2017,11,04,11,37,118.80
2017,11,04,11,38,116.70
2017,11,04,11,39,117.20
2017,11,04,11,40,118.00
2017,11,04,11,41,118.00
2017,11,04,11,42,116.70
2017,11,04,11,43,114.80
2017,11,04,11,44,113.40
2017,11,04,11,45,113.60
2017,11,04,11,46,115.20
2017,11,04,11,47,119.00
2017,11,04,11,48,124.60
2017,11,04,11,49,128.80
2017,11,04,11,50,131.20
2017,11,04,11,51,132.00
2017,11,04,11,52,133.20
2017,11,04,11,53,134.00
2017,11,04,11,54,134.00
2017,11,04,11,55,134.00
2017,11,04,11,56,134.00
2017,11,04,11,57,134.60
2017,11,04,11,58,135.00
2017,11,04,11,59,135.00
2017,11,04,12,00,133.20
2017,11,04,12,01,130.80
2017,11,04,12,02,128.70
2017,11,04,12,03,128.00
2017,11,04,12,04,129.20
2017,11,04,12,05,132.40
2017,11,04,12,06,135.80
2017,11,04,12,07,139.40
2017,11,04,12,08,141.60
2017,11,04,12,09,142.00
2017,11,04,12,10,146.20
2017,11,04,12,11,150.20
2017,11,04,12,12,152.20
2017,11,04,12,13,154.20
2017,11,04,12,14,153.80
2017,11,04,12,15,151.80
2017,11,04,12,16,149.80
2017,11,04,12,17,150.20
2017,11,04,12,18,153.40
2017,11,04,12,19,156.90
2017,11,04,12,20,162.40
2017,11,04,12,21,163.80
2017,11,04,12,22,163.00
2017,11,04,12,23,162.40
2017,11,04,12,24,158.40
2017,11,04,12,25,150.00
2017,11,04,12,26,139.40
2017,11,04,12,27,130.20
2017,11,04,12,28,122.80
2017,11,04,12,29,117.60
2017,11,04,12,30,116.00
2017,11,04,12,31,114.80
2017,11,04,12,32,114.00
2017,11,04,12,33,116.40
2017,11,04,12,34,119.20
2017,11,04,12,35,120.60
2017,11,04,12,36,122.20
2017,11,04,12,37,124.20
2017,11,04,12,38,123.80
2017,11,04,12,39,120.20
2017,11,04,12,40,115.60
2017,11,04,12,41,112.20
2017,11,04,12,42,109.80
2017,11,04,12,43,106.60
2017,11,04,12,44,102.00
2017,11,04,12,45,95.80
2017,11,04,12,46,88.80
2017,11,04,12,47,83.00
2017,11,04,12,48,78.60
2017,11,04,12,49,74.00
2017,11,04,12,50,70.80
2017,11,04,12,51,69.40
2017,11,04,12,52,69.00
2017,11,04,12,53,69.00
2017,11,04,12,54,69.00
2017,11,04,12,55,69.00
2017,11,04,12,56,69.00
2017,11,04,12,57,70.80
2017,11,04,12,58,74.40
2017,11,04,12,59,76.60
2017,11,04,13,00,79.40
2017,11,04,13,01,81.00
2017,11,04,13,02,82.20
2017,11,04,13,03,84.80
2017,11,04,13,04,87.20
2017,11,04,13,05,89.20
2017,11,04,13,06,93.00
2017,11,04,13,07,95.00
2017,11,04,13,08,93.80
2017,11,04,13,09,94.20
2017,11,04,13,10,96.20
2017,11,04,13,11,97.00
2017,11,04,13,12,97.60
2017,11,04,13,13,98.00
2017,11,04,13,14,98.00
2017,11,04,13,15,100.40
2017,11,04,13,16,103.20
2017,11,04,13,17,104.60
2017,11,04,13,18,106.20
2017,11,04,13,19,108.20
2017,11,04,13,20,110.20
2017,11,04,13,21,112.20
2017,11,04,13,22,113.00
2017,11,04,13,23,114.80
2017,11,04,13,24,118.40
2017,11,04,13,25,118.80
2017,11,04,13,26,115.00
2017,11,04,13,27,111.80
2017,11,04,13,28,108.60
2017,11,04,13,29,107.00
2017,11,04,13,30,105.80
2017,11,04,13,31,97.80
2017,11,04,13,32,88.80
2017,11,04,13,33,89.00
2017,11,04,13,34,97.80
2017,11,04,13,35,103.30
2017,11,04,13,36,99.80
2017,11,04,13,37,92.80
2017,11,04,13,38,87.60
2017,11,04,13,39,84.20
2017,11,04,13,40,87.80
2017,11,04,13,41,96.40
2017,11,04,13,42,104.20
2017,11,04,13,43,105.80
2017,11,04,13,44,96.60
2017,11,04,13,45,86.20
2017,11,04,13,46,78.80
2017,11,04,13,47,73.60
2017,11,04,13,48,74.40
2017,11,04,13,49,73.60
2017,11,04,13,50,70.80
2017,11,04,13,51,69.40
2017,11,04,13,52,69.00
2017,11,04,13,53,69.00
2017,11,04,13,54,69.00
2017,11,04,13,55,66.60
2017,11,04,13,56,62.00
2017,11,04,13,57,58.80
2017,11,04,13,58,58.00
2017,11,04,13,59,55.60
2017,11,04,14,00,54.00
2017,11,04,14,01,55.20
2017,11,04,14,02,56.00
2017,11,04,14,03,57.20
2017,11,04,14,04,59.20
2017,11,04,14,05,60.00
2017,11,04,14,06,58.80
2017,11,04,14,07,55.00
2017,11,04,14,08,51.80
2017,11,04,14,09,48.60
2017,11,04,14,10,47.00
2017,11,04,14,11,47.00
2017,11,04,14,12,48.20
2017,11,04,14,13,47.20
2017,11,04,14,14,43.60
2017,11,04,14,15,40.20
2017,11,04,14,16,39.60
2017,11,04,14,17,40.00
2017,11,04,14,18,38.20
2017,11,04,14,19,35.80
2017,11,04,14,20,35.00
2017,11,04,14,21,35.00
2017,11,04,14,22,35.00
2017,11,04,14,23,35.00
2017,11,04,14,24,36.20
2017,11,04,14,25,35.80
2017,11,04,14,26,35.00
2017,11,04,14,27,35.00
2017,11,04,14,28,35.00
2017,11,04,14,29,35.00
2017,11,04,14,30,33.80
2017,11,04,14,31,33.00
2017,11,04,14,32,34.20
2017,11,04,14,33,35.00
2017,11,04,14,34,35.00
2017,11,04,14,35,35.00
2017,11,04,14,36,36.20
2017,11,04,14,37,38.80
2017,11,04,14,38,40.00
2017,11,04,14,39,41.20
2017,11,04,14,40,40.80
2017,11,04,14,41,40.00
2017,11,04,14,42,40.00
2017,11,04,14,43,39.40
2017,11,04,14,44,39.00
2017,11,04,14,45,39.00
2017,11,04,14,46,39.00
2017,11,04,14,47,36.60
2017,11,04,14,48,33.80
2017,11,04,14,49,32.40
2017,11,04,14,50,32.00
2017,11,04,14,51,30.80
2017,11,04,14,52,30.00
2017,11,04,14,53,28.80
2017,11,04,14,54,28.00
2017,11,04,14,55,28.00
2017,11,04,14,56,28.00
2017,11,04,14,57,30.40
2017,11,04,14,58,32.60
2017,11,04,14,59,35.40
2017,11,04,15,00,38.20
2017,11,04,15,01,42.00
2017,11,04,15,02,45.20
2017,11,04,15,03,46.00
2017,11,04,15,04,46.00
2017,11,04,15,05,46.00
2017,11,04,15,06,44.80
2017,11,04,15,07,44.00
2017,11,04,15,08,42.80
2017,11,04,15,09,42.00
2017,11,04,15,10,45.00
2017,11,04,15,11,50.60
2017,11,04,15,12,56.00
2017,11,04,15,13,61.00
2017,11,04,15,14,62.40
2017,11,04,15,15,62.00
2017,11,04,15,16,59.60
2017,11,04,15,17,55.60
2017,11,04,15,18,53.40
2017,11,04,15,19,49.40
2017,11,04,15,20,44.00
2017,11,04,15,21,40.20
2017,11,04,15,22,37.80
2017,11,04,15,23,37.00
2017,11,04,15,24,34.60
2017,11,04,15,25,32.40
2017,11,04,15,26,29.60
2017,11,04,15,27,26.80
2017,11,04,15,28,25.40
2017,11,04,15,29,25.00
2017,11,04,15,30,22.60
2017,11,04,15,31,21.00
2017,11,04,15,32,19.80
2017,11,04,15,33,18.40
2017,11,04,15,34,16.80
2017,11,04,15,35,17.20
2017,11,04,15,36,18.60
2017,11,04,15,37,21.40
2017,11,04,15,38,24.80
2017,11,04,15,39,29.60
2017,11,04,15,40,32.00
2017,11,04,15,41,30.80
2017,11,04,15,42,27.00
2017,11,04,15,43,23.80
2017,11,04,15,44,24.20
2017,11,04,15,45,23.80
2017,11,04,15,46,23.00
2017,11,04,15,47,21.80
2017,11,04,15,48,19.80
2017,11,04,15,49,18.40
2017,11,04,15,50,18.60
2017,11,04,15,51,19.00
2017,11,04,15,52,18.40
2017,11,04,15,53,18.00
2017,11,04,15,54,18.00
2017,11,04,15,55,18.00
2017,11,04,15,56,16.80
2017,11,04,15,57,16.00
2017,11,04,15,58,14.80
2017,11,04,15,59,12.80
2017,11,04,16,00,12.00
2017,11,04,16,01,12.00
2017,11,04,16,02,12.00
2017,11,04,16,03,11.40
2017,11,04,16,04,11.60
2017,11,04,16,05,12.00
2017,11,04,16,06,12.00
2017,11,04,16,07,12.00
2017,11,04,16,08,12.00
2017,11,04,16,09,12.00
2017,11,04,16,10,12.00
2017,11,04,16,11,13.20
2017,11,04,16,12,14.00
2017,11,04,16,13,14.00
2017,11,04,16,14,14.00
2017,11,04,16,15,14.00
2017,11,04,16,16,14.00
2017,11,04,16,17,14.00
2017,11,04,16,18,15.20
2017,11,04,16,19,16.00
2017,11,04,16,20,16.00
2017,11,04,16,21,14.80
2017,11,04,16,22,15.20
2017,11,04,16,23,16.00
2017,11,04,16,24,17.20
2017,11,04,16,25,16.80
2017,11,04,16,26,16.00
2017,11,04,16,27,16.00
2017,11,04,16,28,16.00
2017,11,04,16,29,14.80
2017,11,04,16,30,14.00
2017,11,04,16,31,14.00
2017,11,04,16,32,14.00
2017,11,04,16,33,15.20
2017,11,04,16,34,16.00
2017,11,04,16,35,16.00
2017,11,04,16,36,16.00
2017,11,04,16,37,16.00
2017,11,04,16,38,16.00
2017,11,04,16,39,16.00
2017,11,04,16,40,17.20
2017,11,04,16,41,18.00
2017,11,04,16,42,18.60
2017,11,04,16,43,19.00
2017,11,04,16,44,20.20
2017,11,04,16,45,19.80
2017,11,04,16,46,17.20
2017,11,04,16,47,14.80
2017,11,04,16,48,12.80
2017,11,04,16,49,11.40
2017,11,04,16,50,9.80
2017,11,04,16,51,9.00
2017,11,04,16,52,9.00
2017,11,04,16,53,7.80
2017,11,04,16,54,7.00
2017,11,04,16,55,7.00
2017,11,04,16,56,7.00
2017,11,04,16,57,7.00
2017,11,04,16,58,7.00
2017,11,04,16,59,5.80
2017,11,04,17,00,5.00
2017,11,04,17,01,5.00
2017,11,04,17,02,5.00
2017,11,04,17,03,5.00
2017,11,04,17,04,5.00
2017,11,04,17,05,5.00
2017,11,04,17,06,5.00
2017,11,04,17,07,5.00
2017,11,04,17,08,5.00
2017,11,04,17,09,2.00
2017,11,04,17,10,0.00
2017,11,04,17,11,0.00
2017,11,04,17,12,0.00
2017,11,04,17,13,0.00
2017,11,04,17,14,0.00
2017,11,04,17,15,0.00
2017,11,04,17,16,0.00
2017,11,04,17,17,0.00
2017,11,04,17,18,0.00
2017,11,04,17,19,0.00
2017,11,04,17,20,0.00
2017,11,04,17,21,0.00
2017,11,04,17,22,0.00
2017,11,04,17,23,0.00
2017,11,04,17,24,0.00
2017,11,04,17,25,0.00
2017,11,04,17,26,0.00
2017,11,04,17,27,0.00
2017,11,04,17,28,0.00
2017,11,04,17,29,0.00
2017,11,04,17,30,0.00
2017,11,04,17,31,0.00
2017,11,04,17,32,0.00
2017,11,04,17,33,0.00
2017,11,04,17,34,0.00
2017,11,04,17,35,0.00
2017,11,04,17,36,0.00
2017,11,04,17,37,0.00
2017,11,04,17,38,0.00
2017,11,04,17,39,0.00